period_start,C,m1,H,J0,J1,J2,J3,J4,J5,JA,JB,JC,JD,JJ,JK,JN,#
2014-02-07 00:00:51,0.07,4.23,0.00,23.42,26.92,30.04,6.05,27.25,1034.97,2039.98,2111.88,2325.01,2513.66,349.56,328.93,16.91,0000 0000 0000 0000 000000
2014-02-07 00:01:52,0.14,4.23,0.00,23.42,26.92,29.97,5.98,27.29,1034.97,2039.97,2111.50,2325.00,2513.30,349.66,329.03,16.91,0000 0000 0000 0000 000000
2014-02-07 00:02:52,0.17,4.23,0.00,23.43,26.92,29.99,6.05,27.17,1034.92,2039.98,2111.20,2324.92,2513.12,350.44,329.74,16.92,0000 0000 0000 0000 000000
2014-02-07 00:03:52,0.15,4.23,0.00,23.44,26.92,30.03,6.05,27.54,1034.90,2039.96,2111.07,2324.63,2513.04,349.33,329.03,16.93,0000 0000 0000 0000 000000
2014-02-07 00:04:52,0.16,4.23,0.00,23.44,26.92,30.01,6.23,27.67,1034.75,2039.98,2111.02,2324.28,2513.00,351.43,330.60,16.93,0000 0000 0000 0000 000000
2014-02-07 00:05:53,0.14,4.23,0.00,23.43,26.92,30.01,6.02,27.29,1034.70,2039.99,2111.01,2324.10,2512.88,349.82,329.08,16.94,0000 0000 0000 0000 000000
2014-02-07 00:06:53,0.11,4.23,0.00,23.43,26.92,30.03,6.11,27.38,1034.70,2039.99,2110.97,2324.04,2512.47,350.47,329.69,16.94,0000 0000 0000 0000 000000
2014-02-07 00:07:53,0.13,4.23,0.00,23.42,26.92,30.05,6.18,27.63,1034.72,2039.99,2110.73,2324.01,2512.20,350.47,329.36,16.95,0000 0000 0000 0000 000000
2014-02-07 00:08:53,0.12,4.23,0.00,23.42,26.92,30.04,6.05,27.25,1034.74,2039.96,2110.33,2323.99,2512.07,348.71,328.25,16.95,0000 0000 0000 0000 000000
2014-02-07 00:09:54,0.11,4.23,0.00,23.42,26.92,30.06,6.10,27.50,1034.71,2039.98,2110.12,2323.96,2512.02,350.87,329.78,16.96,0000 0000 0000 0000 000000
2014-02-07 00:10:54,0.07,4.24,0.00,23.42,26.92,30.06,6.14,27.50,1034.71,2039.97,2110.04,2323.65,2511.98,350.39,329.36,16.97,0000 0000 0000 0000 000000
2014-02-07 00:11:54,0.18,4.24,0.00,23.44,26.92,30.05,5.98,27.33,1034.70,2039.96,2110.00,2323.28,2511.90,350.02,329.26,16.97,0000 0000 0000 0000 000000
2014-02-07 00:12:54,0.15,4.24,0.00,23.44,26.92,30.02,6.10,27.21,1034.72,2039.98,2109.83,2323.13,2511.55,350.09,329.32,16.98,0000 0000 0000 0000 000000
2014-02-07 00:13:55,0.21,4.24,0.00,23.45,26.92,30.04,6.13,27.38,1034.77,2039.97,2109.37,2323.05,2511.24,350.78,330.13,16.98,0000 0000 0000 0000 000000
2014-02-07 00:14:55,0.19,4.24,0.00,23.44,26.92,30.02,6.11,27.42,1034.76,2039.98,2109.14,2323.01,2511.11,350.97,330.07,16.99,0000 0000 0000 0000 000000
2014-02-07 00:15:55,0.10,4.24,0.00,23.44,26.92,30.02,6.08,27.58,1034.75,2039.98,2109.05,2322.99,2511.03,350.09,329.04,17.00,0000 0000 0000 0000 000000
2014-02-07 00:16:56,0.04,4.24,0.00,23.44,26.91,30.00,6.08,27.54,1034.81,2039.99,2109.01,2322.97,2510.98,349.79,329.08,17.00,0000 0000 0000 0000 000000
2014-02-07 00:17:56,0.04,4.24,0.00,23.42,26.91,29.92,6.06,27.54,1034.86,2039.99,2108.78,2322.69,2510.75,349.52,328.85,17.01,0000 0000 0000 0000 000000
2014-02-07 00:18:56,0.27,4.24,0.00,23.42,26.90,29.94,6.06,27.21,1034.90,2039.97,2108.32,2322.29,2510.29,349.58,328.93,17.01,0000 0000 0000 0000 000000
2014-02-07 00:19:56,0.29,4.24,0.00,23.42,26.90,30.00,5.92,27.17,1035.09,2039.96,2108.12,2322.10,2510.10,349.80,329.19,17.02,0000 0000 0000 0000 000000
2014-02-07 00:20:57,0.17,4.24,0.00,23.42,26.90,30.02,5.98,27.29,1035.17,2039.97,2108.04,2322.04,2510.04,349.49,328.93,17.02,0000 0000 0000 0000 000000
2014-02-07 00:21:57,0.06,4.25,0.00,23.42,26.90,30.02,5.98,27.29,1035.17,2039.99,2107.93,2322.01,2510.01,349.56,328.76,17.03,0000 0000 0000 0000 000000
2014-02-07 00:22:57,0.05,4.25,0.00,23.43,26.90,30.00,6.08,27.38,1035.17,2039.99,2107.49,2321.96,2509.95,349.66,329.25,17.04,0000 0000 0000 0000 000000
2014-02-07 00:23:58,0.16,4.25,0.00,23.42,26.90,30.02,6.27,27.33,1035.17,2039.98,2107.19,2321.80,2509.67,351.22,330.55,17.04,0000 0000 0000 0000 000000
2014-02-07 00:24:58,0.20,4.25,0.00,23.42,26.90,30.00,6.13,27.29,1035.17,2039.97,2107.06,2321.51,2509.27,349.93,329.00,17.05,0000 0000 0000 0000 000000
2014-02-07 00:25:58,0.22,4.25,0.00,23.42,26.90,29.98,6.00,27.38,1035.17,2039.96,2106.95,2321.19,2509.10,349.20,328.66,17.05,0000 0000 0000 0000 000000
2014-02-07 00:26:58,0.17,4.25,0.00,23.42,26.90,29.98,6.16,27.42,1035.17,2039.97,2106.67,2321.08,2509.04,350.10,329.55,17.06,0000 0000 0000 0000 000000
2014-02-07 00:27:59,0.15,4.25,0.00,23.42,26.90,29.98,6.14,27.29,1035.17,2039.97,2106.28,2321.03,2509.00,350.06,329.47,17.07,0000 0000 0000 0000 000000
2014-02-07 00:28:59,0.12,4.25,0.00,23.42,26.90,30.03,6.00,27.25,1035.18,2039.97,2106.10,2321.00,2508.88,349.80,329.12,17.07,0000 0000 0000 0000 000000
2014-02-07 00:29:59,0.09,4.25,0.00,23.42,26.90,30.02,6.21,27.38,1035.19,2039.97,2106.03,2320.96,2508.53,350.35,329.75,17.08,0000 0000 0000 0000 000000
2014-02-07 00:30:59,0.09,4.25,0.00,23.42,26.90,30.00,6.04,27.13,1035.19,2039.95,2106.01,2320.85,2508.23,349.80,329.25,17.08,0000 0000 0000 0000 000000
2014-02-07 00:32:00,0.08,4.25,0.00,23.42,26.90,30.01,6.22,27.46,1035.18,2039.95,2105.75,2320.48,2508.09,351.02,330.46,17.09,0000 0000 0000 0000 000000
2014-02-07 00:33:00,0.29,4.26,0.00,23.42,26.90,30.03,6.07,27.33,1035.19,2039.96,2105.31,2320.19,2508.03,349.59,329.03,17.10,0000 0000 0000 0000 000000
2014-02-07 00:34:00,0.22,4.26,0.00,23.42,26.90,30.04,6.11,27.96,1035.18,2039.95,2105.11,2320.07,2508.01,349.59,329.32,17.10,0000 0000 0000 0000 000000
2014-02-07 00:35:00,0.09,4.26,0.00,23.38,26.90,30.00,5.92,27.50,1035.18,2039.96,2105.03,2320.03,2507.86,348.62,328.43,17.11,0000 0000 0000 0000 000000
2014-02-07 00:36:00,0.09,4.26,0.00,23.32,26.90,29.88,5.97,27.71,1035.19,2039.97,2104.87,2320.00,2507.43,350.06,329.18,17.11,0000 0000 0000 0000 000000
2014-02-07 00:37:01,0.15,4.26,0.00,23.25,26.90,29.83,6.17,27.58,1035.23,2039.96,2104.42,2319.84,2507.17,350.60,330.18,17.12,0000 0000 0000 0000 000000
2014-02-07 00:38:01,0.21,4.26,0.00,23.16,26.90,29.71,6.22,27.46,1035.20,2039.95,2104.15,2319.47,2507.06,350.62,330.29,17.12,0000 0000 0000 0000 000000
2014-02-07 00:39:01,0.22,4.26,0.00,23.05,26.90,29.46,6.14,27.42,1035.28,2039.95,2104.05,2319.21,2507.01,350.13,330.08,17.13,0000 0000 0000 0000 000000
2014-02-07 00:40:02,0.13,4.26,0.00,22.95,26.90,29.39,6.07,27.29,1035.58,2039.91,2104.01,2319.08,2506.92,349.77,329.84,17.14,0000 0000 0000 0000 000000
2014-02-07 00:41:02,0.03,4.26,0.00,22.86,26.90,29.44,6.12,27.46,1035.65,2039.85,2103.74,2319.03,2506.58,350.60,330.75,17.14,0000 0000 0000 0000 000000
2014-02-07 00:42:02,0.13,4.26,0.00,22.75,26.90,29.36,6.08,27.38,1035.66,2039.85,2103.30,2319.01,2506.24,349.94,330.25,17.15,0000 0000 0000 0000 000000
2014-02-07 00:43:02,0.21,4.26,0.00,22.68,26.88,29.27,6.06,27.50,1035.66,2039.88,2103.10,2318.98,2506.09,349.98,330.36,17.15,0000 0000 0000 0000 000000
2014-02-07 00:44:03,0.08,4.26,0.00,22.60,26.88,29.22,6.14,27.29,1035.67,2039.93,2103.02,2318.90,2506.03,350.27,330.73,17.16,0000 0000 0000 0000 000000
2014-02-07 00:45:03,0.13,4.27,0.00,22.56,26.87,29.20,6.01,27.42,1035.68,2039.95,2102.93,2318.59,2506.00,349.82,330.35,17.17,0000 0000 0000 0000 000000
2014-02-07 00:46:03,0.18,4.27,0.00,22.50,26.87,29.17,6.12,27.46,1035.69,2039.94,2102.52,2318.24,2505.96,350.47,330.91,17.17,0000 0000 0000 0000 000000
2014-02-07 00:47:03,0.22,4.27,0.00,22.46,26.87,29.12,6.10,27.33,1035.68,2039.95,2102.20,2318.08,2505.74,349.45,330.42,17.18,0000 0000 0000 0000 000000
2014-02-07 00:48:04,0.21,4.27,0.00,22.42,26.87,29.02,6.16,27.33,1035.71,2039.93,2102.07,2318.03,2505.40,350.37,330.90,17.18,0000 0000 0000 0000 000000
2014-02-07 00:49:04,0.09,4.27,0.00,22.38,26.87,29.06,6.11,27.29,1035.83,2039.93,2102.02,2317.99,2505.16,350.28,330.52,17.19,0000 0000 0000 0000 000000
2014-02-07 00:50:04,0.08,4.27,0.00,22.37,26.87,29.14,6.13,27.54,1035.97,2039.96,2101.84,2317.98,2505.05,350.19,331.02,17.19,0000 0000 0000 0000 000000
2014-02-07 00:51:04,0.11,4.27,0.00,22.38,26.86,29.30,6.00,27.54,1035.93,2039.95,2101.37,2317.97,2505.02,348.51,329.78,17.20,0000 0000 0000 0000 000000
2014-02-07 00:52:04,0.13,4.27,0.00,22.39,26.85,29.41,6.07,27.33,1035.82,2039.97,2101.13,2317.75,2505.00,350.24,330.99,17.21,0000 0000 0000 0000 000000
2014-02-07 00:53:05,0.16,4.27,0.00,22.39,26.85,29.52,6.22,27.54,1035.80,2039.98,2101.04,2317.47,2504.95,350.45,330.52,17.21,0000 0000 0000 0000 000000
2014-02-07 00:54:05,0.15,4.27,0.00,22.39,26.85,29.57,6.05,27.38,1035.87,2039.99,2101.00,2317.22,2504.75,349.31,330.30,17.22,0000 0000 0000 0000 000000
2014-02-07 00:55:05,0.16,4.27,0.00,22.39,26.85,29.62,6.17,27.54,1035.76,2039.98,2100.83,2317.08,2504.32,350.12,330.93,17.22,0000 0000 0000 0000 000000
2014-02-07 00:56:05,0.18,4.28,0.00,22.38,26.85,29.69,6.01,27.54,1035.85,2039.99,2100.45,2317.03,2504.11,349.45,330.21,17.23,0000 0000 0000 0000 000000
2014-02-07 00:57:05,0.18,4.28,0.00,22.37,26.85,29.73,6.02,27.54,1035.98,2039.98,2100.17,2317.01,2504.04,349.92,331.01,17.24,0000 0000 0000 0000 000000
2014-02-07 00:58:06,0.08,4.28,0.00,22.35,26.84,29.75,6.23,27.63,1035.98,2039.98,2100.06,2316.98,2504.01,350.12,331.18,17.24,0000 0000 0000 0000 000000
2014-02-07 00:59:06,0.03,4.28,0.00,22.34,26.84,29.76,6.17,27.71,1036.01,2039.97,2100.01,2316.79,2503.94,350.32,331.18,17.25,0000 0000 0000 0000 000000
2014-02-07 01:00:06,0.11,4.28,0.00,22.34,26.83,29.80,6.13,27.46,1036.06,2039.97,2099.75,2316.39,2503.61,350.75,331.60,17.25,0000 0000 0000 0000 000000
2014-02-07 01:01:07,0.31,4.28,0.00,22.34,26.82,29.80,6.17,27.58,1036.08,2039.99,2099.31,2316.16,2503.26,350.16,331.06,17.26,0000 0000 0000 0000 000000
2014-02-07 01:02:07,0.28,4.28,0.00,22.33,26.82,29.80,6.04,27.46,1036.07,2039.98,2099.11,2316.06,2503.12,349.53,330.47,17.27,0000 0000 0000 0000 000000
2014-02-07 01:03:07,0.10,4.28,0.00,22.32,26.82,29.75,6.07,27.58,1036.10,2039.99,2099.04,2316.02,2503.04,349.91,330.84,17.27,0000 0000 0000 0000 000000
2014-02-07 01:04:07,0.05,4.28,0.00,22.31,26.82,29.72,6.04,27.67,1036.13,2039.98,2098.97,2316.00,2503.01,349.00,330.01,17.28,0000 0000 0000 0000 000000
2014-02-07 01:05:07,0.02,4.28,0.00,22.29,26.82,29.73,6.21,27.42,1036.13,2039.99,2098.67,2315.97,2502.98,350.92,331.94,17.28,0000 0000 0000 0000 000000
2014-02-07 01:06:08,0.12,4.28,0.00,22.26,26.82,29.77,6.11,27.50,1036.15,2039.97,2098.28,2315.91,2502.81,349.58,330.61,17.29,0000 0000 0000 0000 000000
2014-02-07 01:07:08,0.11,4.28,0.00,22.24,26.82,29.80,6.22,27.71,1036.15,2039.98,2098.11,2315.61,2502.46,351.34,332.31,17.29,0000 0000 0000 0000 000000
2014-02-07 01:08:08,0.27,4.29,0.00,22.22,26.82,29.79,6.22,27.58,1036.15,2039.99,2098.04,2315.28,2502.19,350.04,331.10,17.30,0000 0000 0000 0000 000000
2014-02-07 01:09:08,0.22,4.29,0.00,22.20,26.82,29.81,6.18,27.58,1036.16,2039.99,2097.99,2315.13,2502.07,349.92,330.63,17.31,0000 0000 0000 0000 000000
2014-02-07 01:10:08,0.08,4.29,0.00,22.18,26.82,29.83,6.23,27.58,1036.18,2039.98,2097.68,2315.05,2502.02,349.78,330.45,17.31,0000 0000 0000 0000 000000
2014-02-07 01:11:09,0.12,4.29,0.00,22.17,26.82,29.80,6.17,27.83,1036.16,2039.99,2097.27,2315.01,2502.01,350.33,331.44,17.32,0000 0000 0000 0000 000000
2014-02-07 01:12:09,0.13,4.29,0.00,22.15,26.82,29.80,6.15,27.71,1036.18,2039.99,2097.09,2314.98,2501.91,350.10,331.24,17.32,0000 0000 0000 0000 000000
2014-02-07 01:13:09,0.07,4.29,0.00,22.13,26.82,29.72,6.10,27.63,1036.23,2039.98,2097.00,2314.92,2501.55,349.65,330.52,17.33,0000 0000 0000 0000 000000
2014-02-07 01:14:09,0.13,4.29,0.00,22.11,26.82,29.66,6.00,27.33,1036.34,2039.99,2096.85,2314.72,2501.22,350.57,331.87,17.34,0000 0000 0000 0000 000000
2014-02-07 01:15:10,0.19,4.29,0.00,22.09,26.82,29.73,6.13,27.25,1036.53,2039.98,2096.44,2314.33,2501.08,349.70,331.44,17.34,0000 0000 0000 0000 000000
2014-02-07 01:16:10,0.29,4.29,0.00,22.07,26.81,29.71,6.18,27.58,1036.57,2039.98,2096.17,2314.12,2501.03,350.33,331.36,17.35,0000 0000 0000 0000 000000
2014-02-07 01:17:10,0.16,4.29,0.00,22.08,26.81,29.65,6.13,27.71,1036.53,2039.99,2096.06,2314.05,2501.01,349.90,331.40,17.35,0000 0000 0000 0000 000000
2014-02-07 01:18:10,0.05,4.29,0.00,22.11,26.80,29.69,5.98,27.42,1036.51,2039.99,2096.01,2314.01,2500.99,349.42,331.13,17.36,0000 0000 0000 0000 000000
2014-02-07 01:19:11,0.03,4.29,0.00,22.14,26.80,29.76,6.18,27.50,1036.58,2039.99,2095.76,2314.00,2500.89,350.27,331.54,17.36,0000 0000 0000 0000 000000
2014-02-07 01:20:11,0.11,4.29,0.00,22.18,26.80,29.78,6.09,27.58,1036.62,2039.99,2095.40,2313.96,2500.61,349.52,330.80,17.37,0000 0000 0000 0000 000000
2014-02-07 01:21:11,0.17,4.30,0.00,22.20,26.80,29.73,6.21,27.67,1036.64,2039.99,2095.15,2313.92,2500.26,350.47,331.69,17.38,0000 0000 0000 0000 000000
2014-02-07 01:22:11,0.15,4.30,0.00,22.23,26.80,29.68,6.21,27.67,1036.63,2039.99,2095.05,2313.79,2500.09,350.04,331.25,17.38,0000 0000 0000 0000 000000
2014-02-07 01:23:12,0.09,4.30,0.00,22.26,26.80,29.72,6.13,27.50,1036.64,2039.98,2095.01,2313.45,2500.03,350.24,331.40,17.39,0000 0000 0000 0000 000000
2014-02-07 01:24:12,0.14,4.30,0.00,22.28,26.80,29.65,6.27,27.67,1036.64,2039.99,2094.92,2313.20,2500.00,350.84,331.95,17.39,0000 0000 0000 0000 000000
2014-02-07 01:25:12,0.14,4.30,0.00,22.30,26.80,29.63,6.12,27.29,1036.63,2039.99,2094.54,2313.07,2499.96,349.53,330.68,17.40,0000 0000 0000 0000 000000
2014-02-07 01:26:12,0.17,4.30,0.00,22.32,26.80,29.66,6.17,27.38,1036.63,2039.99,2094.23,2313.03,2499.86,350.64,331.71,17.41,0000 0000 0000 0000 000000
2014-02-07 01:27:12,0.12,4.30,0.00,22.33,26.80,29.62,6.26,27.63,1036.63,2039.99,2094.08,2313.01,2499.45,351.23,332.25,17.41,0000 0000 0000 0000 000000
2014-02-07 01:28:13,0.13,4.30,0.00,22.34,26.80,29.57,5.97,27.54,1036.64,2039.99,2094.03,2313.00,2499.19,349.68,330.78,17.42,0000 0000 0000 0000 000000
2014-02-07 01:29:13,0.06,4.30,0.00,22.34,26.80,29.61,6.15,27.63,1036.63,2039.99,2093.99,2312.98,2499.07,350.05,331.13,17.42,0000 0000 0000 0000 000000
2014-02-07 01:30:13,0.05,4.30,0.00,22.33,26.80,29.58,6.23,27.50,1036.64,2039.99,2093.78,2312.82,2499.02,350.21,331.29,17.43,0000 0000 0000 0000 000000
2014-02-07 01:31:13,0.13,4.30,0.00,22.34,26.80,29.58,6.10,27.46,1036.64,2039.99,2093.39,2312.55,2498.99,349.91,330.73,17.43,0000 0000 0000 0000 000000
2014-02-07 01:32:14,0.23,4.30,0.00,22.36,26.81,29.57,6.14,27.42,1036.65,2039.99,2093.14,2312.23,2498.90,350.49,331.53,17.44,0000 0000 0000 0000 000000
2014-02-07 01:33:14,0.21,4.31,0.00,22.38,26.82,29.57,5.98,27.25,1036.66,2039.99,2093.04,2312.09,2498.52,349.15,330.29,17.45,0000 0000 0000 0000 000000
2014-02-07 01:34:14,0.14,4.31,0.00,22.39,26.82,29.54,6.14,27.67,1036.69,2039.99,2092.97,2312.03,2498.20,350.35,331.68,17.45,0000 0000 0000 0000 000000
2014-02-07 01:35:14,0.11,4.31,0.00,22.41,26.82,29.52,5.93,27.63,1036.67,2039.99,2092.61,2312.01,2498.08,349.56,330.60,17.46,0000 0000 0000 0000 000000
2014-02-07 01:36:15,0.13,4.31,0.00,22.44,26.82,29.53,5.99,27.54,1036.71,2039.98,2092.22,2311.98,2498.03,348.96,330.41,17.46,0000 0000 0000 0000 000000
2014-02-07 01:37:15,0.12,4.31,0.00,22.46,26.82,29.52,6.14,27.58,1036.70,2039.98,2092.08,2311.87,2498.00,350.01,330.89,17.47,0000 0000 0000 0000 000000
2014-02-07 01:38:15,0.08,4.31,0.00,22.48,26.82,29.51,6.08,27.42,1036.81,2039.99,2092.02,2311.52,2497.88,349.73,330.60,17.48,0000 0000 0000 0000 000000
2014-02-07 01:39:15,0.18,4.31,0.00,22.49,26.83,29.53,6.07,27.58,1036.98,2039.99,2091.95,2311.27,2497.54,349.74,330.21,17.48,0000 0000 0000 0000 000000
2014-02-07 01:40:15,0.19,4.31,0.00,22.51,26.84,29.52,6.09,27.17,1037.08,2039.99,2091.65,2311.10,2497.23,349.60,330.66,17.49,0000 0000 0000 0000 000000
2014-02-07 01:41:16,0.21,4.31,0.00,22.53,26.85,29.52,6.05,27.54,1037.12,2039.99,2091.30,2311.03,2497.08,349.30,330.37,17.49,0000 0000 0000 0000 000000
2014-02-07 01:42:16,0.15,4.31,0.00,22.54,26.85,29.51,6.25,27.50,1037.12,2039.99,2091.11,2311.01,2497.03,350.47,331.54,17.50,0000 0000 0000 0000 000000
2014-02-07 01:43:16,0.07,4.31,0.00,22.55,26.85,29.51,6.07,27.42,1037.14,2039.99,2091.03,2310.98,2496.98,349.93,330.94,17.50,0000 0000 0000 0000 000000
2014-02-07 01:44:17,0.05,4.31,0.00,22.57,26.86,29.52,6.12,27.54,1037.14,2039.99,2090.87,2310.85,2496.76,349.88,330.87,17.51,0000 0000 0000 0000 000000
2014-02-07 01:45:17,0.14,4.31,0.00,22.59,26.87,29.53,6.12,27.25,1037.14,2039.98,2090.49,2310.47,2496.34,350.51,331.44,17.52,0000 0000 0000 0000 000000
2014-02-07 01:46:17,0.33,4.32,0.00,22.61,26.87,29.54,6.15,27.42,1037.14,2039.98,2090.21,2310.21,2496.13,349.85,330.89,17.52,0000 0000 0000 0000 000000
2014-02-07 01:47:17,0.22,4.32,0.00,22.63,26.88,29.54,6.13,27.46,1037.17,2039.98,2090.07,2310.08,2496.05,349.48,330.60,17.53,0000 0000 0000 0000 000000
2014-02-07 01:48:18,0.10,4.32,0.00,22.65,26.89,29.56,6.11,27.75,1037.32,2039.99,2090.03,2310.03,2496.01,350.00,330.95,17.53,0000 0000 0000 0000 000000
2014-02-07 01:49:18,0.05,4.32,0.00,22.67,26.90,29.57,6.15,27.38,1037.31,2039.96,2089.85,2310.01,2495.99,350.16,330.44,17.54,0000 0000 0000 0000 000000
2014-02-07 01:50:18,0.05,4.32,0.00,22.69,26.90,29.58,6.01,27.38,1037.25,2039.93,2089.39,2309.95,2495.83,349.81,330.52,17.55,0000 0000 0000 0000 000000
2014-02-07 01:51:19,0.14,4.32,0.00,22.69,26.91,29.60,6.21,27.33,1037.16,2039.90,2089.15,2309.62,2495.37,351.09,331.54,17.55,0000 0000 0000 0000 000000
2014-02-07 01:52:19,0.25,4.32,0.00,22.70,26.92,29.61,6.08,27.08,1037.13,2039.84,2089.05,2309.29,2495.14,350.59,331.40,17.56,0000 0000 0000 0000 000000
2014-02-07 01:53:19,0.16,4.32,0.00,22.71,26.92,29.62,6.24,27.29,1037.15,2039.75,2088.84,2309.11,2495.05,350.52,331.32,17.56,0000 0000 0000 0000 000000
2014-02-07 01:54:19,0.04,4.32,0.00,22.72,26.93,29.62,5.98,27.25,1037.14,2039.80,2088.41,2309.04,2495.01,349.77,331.17,17.57,0000 0000 0000 0000 000000
2014-02-07 01:55:20,0.18,4.32,0.00,22.73,26.94,29.64,5.97,27.29,1037.13,2039.81,2088.17,2309.01,2494.99,348.50,329.07,17.58,0000 0000 0000 0000 000000
2014-02-07 01:56:20,0.11,4.32,0.00,22.74,26.95,29.67,5.98,27.33,1037.13,2039.73,2088.05,2308.97,2494.78,349.94,330.63,17.58,0000 0000 0000 0000 000000
2014-02-07 01:57:20,0.01,4.33,0.00,22.75,26.95,29.66,6.13,27.25,1037.13,2039.58,2087.97,2308.80,2494.38,350.43,330.96,17.59,0000 0000 0000 0000 000000
2014-02-07 01:58:20,0.00,4.32,0.00,22.77,26.97,29.68,6.13,27.25,1037.13,2039.56,2087.56,2308.43,2494.14,350.51,331.33,17.59,0000 0000 0000 0000 000000
2014-02-07 01:59:20,0.31,4.33,0.00,22.77,26.97,29.70,6.26,27.42,1037.13,2039.53,2087.22,2308.18,2494.05,350.32,331.11,17.60,0000 0000 0000 0000 000000
2014-02-07 02:00:21,0.19,4.33,0.00,22.77,26.97,29.71,6.20,27.33,1037.13,2039.44,2087.08,2308.07,2494.01,350.12,330.87,17.60,0000 0000 0000 0000 000000
2014-02-07 02:01:21,-0.05,4.33,0.00,22.78,26.99,29.72,6.23,27.46,1037.13,2039.44,2086.99,2308.02,2493.96,351.07,331.76,17.61,0000 0000 0000 0000 000000
2014-02-07 02:02:21,0.09,4.33,0.00,22.79,27.00,29.72,6.14,27.21,1037.13,2039.35,2086.85,2308.01,2493.58,349.32,330.09,17.62,0000 0000 0000 0000 000000
2014-02-07 02:03:21,0.06,4.33,0.00,22.80,27.00,29.74,6.03,27.21,1037.13,2039.30,2086.43,2307.99,2493.24,350.16,330.88,17.62,0000 0000 0000 0000 000000
2014-02-07 02:04:22,0.14,4.33,0.00,22.81,27.02,29.75,6.04,27.58,1037.13,2039.19,2086.16,2307.75,2493.09,349.91,330.64,17.63,0000 0000 0000 0000 000000
2014-02-07 02:05:22,0.09,4.33,0.00,22.82,27.02,29.77,6.17,27.29,1037.13,2039.11,2086.05,2307.34,2493.03,349.38,330.11,17.63,0000 0000 0000 0000 000000
2014-02-07 02:06:22,0.09,4.33,0.00,22.82,27.02,29.78,6.22,27.46,1037.13,2039.09,2086.01,2307.13,2492.99,351.10,331.38,17.64,0000 0000 0000 0000 000000
2014-02-07 02:07:23,0.07,4.33,0.00,22.83,27.04,29.78,6.00,27.33,1037.13,2039.05,2085.83,2307.05,2492.74,349.64,330.61,17.65,0000 0000 0000 0000 000000
2014-02-07 02:08:23,0.12,4.33,0.00,22.84,27.05,29.79,6.11,27.25,1037.13,2039.02,2085.38,2307.01,2492.32,350.23,330.89,17.65,0000 0000 0000 0000 000000
2014-02-07 02:09:23,0.19,4.33,0.00,22.84,27.05,29.82,6.17,27.29,1037.13,2039.03,2085.14,2306.98,2492.12,350.33,330.99,17.66,0000 0000 0000 0000 000000
2014-02-07 02:10:24,0.13,4.33,0.00,22.84,27.07,29.83,6.03,27.50,1037.13,2039.04,2085.04,2306.87,2492.03,350.19,331.27,17.66,0000 0000 0000 0000 000000
2014-02-07 02:11:24,0.11,4.33,0.00,22.85,27.07,29.84,5.96,27.38,1037.15,2039.02,2084.94,2306.42,2491.99,348.69,329.19,17.67,0000 0000 0000 0000 000000
2014-02-07 02:12:24,0.18,4.34,0.00,22.85,27.07,29.85,6.13,27.29,1037.14,2039.01,2084.56,2306.17,2491.85,350.16,330.91,17.67,0000 0000 0000 0000 000000
2014-02-07 02:13:24,0.22,4.34,0.00,22.85,27.09,29.85,6.21,27.29,1037.14,2039.00,2084.22,2306.05,2491.41,350.36,330.67,17.68,0000 0000 0000 0000 000000
2014-02-07 02:14:24,0.21,4.34,0.00,22.86,27.10,29.86,6.08,27.17,1037.13,2039.00,2084.07,2305.99,2491.15,349.73,330.51,17.69,0000 0000 0000 0000 000000
2014-02-07 02:15:25,0.10,4.34,0.00,22.87,27.10,29.87,6.00,27.13,1037.13,2039.00,2084.01,2305.96,2491.05,349.42,330.11,17.69,0000 0000 0000 0000 000000
2014-02-07 02:16:25,0.08,4.34,0.00,22.87,27.11,29.87,6.13,27.25,1037.13,2039.00,2083.73,2305.66,2490.97,351.27,331.85,17.70,0000 0000 0000 0000 000000
2014-02-07 02:17:25,0.20,4.34,0.00,22.87,27.12,29.88,6.08,27.54,1037.13,2039.00,2083.34,2305.32,2490.70,349.55,330.83,17.70,0000 0000 0000 0000 000000
2014-02-07 02:18:26,0.29,4.34,0.00,22.87,27.12,29.88,6.04,27.17,1037.13,2039.00,2083.13,2305.12,2490.27,349.54,330.21,17.71,0000 0000 0000 0000 000000
2014-02-07 02:19:26,0.21,4.34,0.00,22.88,27.13,29.91,6.22,26.92,1037.13,2039.00,2083.05,2305.04,2490.09,350.81,331.39,17.72,0000 0000 0000 0000 000000
2014-02-07 02:20:26,0.09,4.34,0.00,22.89,27.15,29.90,6.02,27.38,1037.13,2039.00,2082.86,2305.00,2490.02,349.91,330.52,17.72,0000 0000 0000 0000 000000
2014-02-07 02:21:27,0.09,4.34,0.00,22.88,27.15,29.91,6.27,27.38,1037.14,2039.00,2082.40,2304.95,2489.99,350.04,330.67,17.73,0000 0000 0000 0000 000000
2014-02-07 02:22:27,0.16,4.35,0.00,22.89,27.15,29.90,6.20,27.25,1037.14,2038.99,2082.15,2304.63,2489.67,351.11,331.68,17.73,0000 0000 0000 0000 000000
2014-02-07 02:23:27,0.23,4.35,0.00,22.89,27.17,29.91,6.05,26.79,1037.13,2038.98,2082.04,2304.26,2489.27,350.52,331.11,17.74,0000 0000 0000 0000 000000
2014-02-07 02:24:27,0.23,4.35,0.00,22.89,27.17,29.93,6.12,27.17,1037.14,2038.96,2081.95,2304.09,2489.09,350.95,331.31,17.75,0000 0000 0000 0000 000000
2014-02-07 02:25:28,0.11,4.35,0.00,22.89,27.17,29.92,6.24,27.38,1037.13,2038.97,2081.61,2304.03,2489.03,350.59,331.17,17.75,0000 0000 0000 0000 000000
2014-02-07 02:26:28,0.12,4.35,0.00,22.89,27.19,29.93,6.19,27.33,1037.14,2038.94,2081.26,2304.01,2488.99,350.30,330.90,17.76,0000 0000 0000 0000 000000
2014-02-07 02:27:28,0.10,4.35,0.00,22.89,27.20,29.96,5.99,27.54,1037.13,2038.95,2081.09,2303.89,2488.79,348.79,329.48,17.76,0000 0000 0000 0000 000000
2014-02-07 02:28:28,0.14,4.35,0.00,22.89,27.20,29.96,6.13,27.38,1037.14,2038.93,2081.00,2303.52,2488.35,350.34,331.05,17.77,0000 0000 0000 0000 000000
2014-02-07 02:29:29,0.24,4.35,0.00,22.90,27.20,29.95,6.17,26.83,1037.16,2038.90,2080.63,2303.22,2488.14,351.31,331.84,17.77,0000 0000 0000 0000 000000
2014-02-07 02:30:29,0.23,4.35,0.00,22.89,27.21,29.96,6.25,27.42,1037.13,2038.90,2080.23,2303.08,2488.05,349.69,330.33,17.78,0000 0000 0000 0000 000000
2014-02-07 02:31:29,0.19,4.35,0.00,22.89,27.22,29.99,6.23,27.17,1037.13,2038.91,2080.08,2303.03,2488.01,350.49,331.01,17.79,0000 0000 0000 0000 000000
2014-02-07 02:32:30,0.06,4.36,0.00,22.89,27.22,29.99,6.13,27.17,1037.13,2038.90,2080.00,2303.01,2487.98,350.08,330.69,17.79,0000 0000 0000 0000 000000
2014-02-07 02:33:30,0.05,4.36,0.00,22.89,27.22,29.99,6.04,27.21,1037.08,2038.86,2079.55,2302.98,2487.70,350.05,330.65,17.80,0000 0000 0000 0000 000000
2014-02-07 02:34:30,0.13,4.36,0.00,22.91,27.24,30.00,6.14,27.42,1037.02,2038.78,2079.20,2302.82,2487.34,349.34,329.85,17.80,0000 0000 0000 0000 000000
2014-02-07 02:35:30,0.11,4.36,0.00,22.92,27.25,29.99,6.07,27.25,1036.88,2038.56,2079.07,2302.40,2487.12,349.46,329.66,17.81,0000 0000 0000 0000 000000
2014-02-07 02:36:31,0.05,4.36,0.00,22.92,27.25,30.00,6.08,27.29,1037.00,2038.45,2078.85,2302.15,2487.04,349.61,330.18,17.82,0000 0000 0000 0000 000000